Tiempo cada hora Celej

Hoy, 18 Abril, Domingo

Tiempo Temperatura Precipitaciones Viento Presión Humedad
00:00 +5°C° 0 mm 2 mps 749 mmHg 93%
01:00 +5°C° 0 mm 2 mps 749 mmHg 93%
02:00 +5°C° 0 mm 1 mps 749 mmHg 93%
03:00 +5°C° 0 mm 1 mps 749 mmHg 93%
04:00 +4°C° 0 mm 1 mps 749 mmHg 93%
05:00 +5°C° 0 mm 1 mps 749 mmHg 88%
06:00 +6°C° 0 mm 1 mps 749 mmHg 84%
07:00 +8°C° 0 mm 1 mps 749 mmHg 80%
08:00 +9°C° 0 mm 1 mps 749 mmHg 75%
09:00 +11°C° 0 mm 1 mps 749 mmHg 70%
10:00 +12°C° 0 mm 1 mps 749 mmHg 64%
11:00 +13°C° 0 mm 2 mps 749 mmHg 62%
12:00 +13°C° 0 mm 2 mps 749 mmHg 60%
13:00 +14°C° 0 mm 2 mps 749 mmHg 57%
14:00 +13°C° 0 mm 2 mps 748 mmHg 62%
15:00 +13°C° 0 mm 2 mps 748 mmHg 66%
16:00 +13°C° 0 mm 2 mps 748 mmHg 70%
17:00 +12°C° 0 mm 2 mps 748 mmHg 74%
18:00 +10°C° 0 mm 2 mps 749 mmHg 78%
19:00 +10°C° 0 mm 2 mps 749 mmHg 81%
20:00 +10°C° 0.1 mm 2 mps 749 mmHg 84%
21:00 +9°C° 0.1 mm 2 mps 749 mmHg 87%
22:00 +9°C° 0.1 mm 2 mps 749 mmHg 89%
23:00 +9°C° 0.3 mm 2 mps 749 mmHg 90%

Mañana, 19 Abril, Lunes

Tiempo Temperatura Precipitaciones Viento Presión Humedad
00:00 +9°C° 0.3 mm 3 mps 749 mmHg 91%
01:00 +9°C° 0.3 mm 3 mps 749 mmHg 92%
02:00 +8°C° 0 mm 3 mps 748 mmHg 92%
03:00 +7°C° 0 mm 3 mps 748 mmHg 93%
04:00 +5°C° 0 mm 3 mps 748 mmHg 93%
05:00 +6°C° 0 mm 4 mps 748 mmHg 88%
06:00 +6°C° 0 mm 4 mps 749 mmHg 83%
07:00 +7°C° 0 mm 5 mps 749 mmHg 77%
08:00 +8°C° 0 mm 6 mps 749 mmHg 72%
09:00 +9°C° 0 mm 6 mps 749 mmHg 66%
10:00 +10°C° 0 mm 6 mps 748 mmHg 61%
11:00 +10°C° 0 mm 6 mps 748 mmHg 63%
12:00 +9°C° 0 mm 5 mps 748 mmHg 65%
13:00 +9°C° 0 mm 5 mps 748 mmHg 67%
14:00 +9°C° 0 mm 5 mps 748 mmHg 67%
15:00 +10°C° 0 mm 4 mps 748 mmHg 67%
16:00 +10°C° 0 mm 4 mps 748 mmHg 67%
17:00 +8°C° 0 mm 4 mps 748 mmHg 69%
18:00 +8°C° 0 mm 4 mps 748 mmHg 71%
19:00 +7°C° 0 mm 4 mps 748 mmHg 73%
20:00 +7°C° 0 mm 4 mps 748 mmHg 74%
21:00 +7°C° 0 mm 4 mps 747 mmHg 75%
22:00 +7°C° 0 mm 4 mps 747 mmHg 76%
23:00 +7°C° 0 mm 3 mps 747 mmHg 76%

Pasado mañana, 20 Abril, Martes

Tiempo Temperatura Precipitaciones Viento Presión Humedad
00:00 +7°C° 0 mm 3 mps 747 mmHg 76%
01:00 +7°C° 0 mm 3 mps 747 mmHg 76%
02:00 +7°C° 0 mm 3 mps 746 mmHg 76%
03:00 +5°C° 0 mm 3 mps 746 mmHg 76%
04:00 +5°C° 0 mm 3 mps 746 mmHg 77%
05:00 +7°C° 0 mm 3 mps 746 mmHg 76%
06:00 +7°C° 0 mm 3 mps 746 mmHg 75%
07:00 +8°C° 0 mm 3 mps 746 mmHg 74%
08:00 +9°C° 0 mm 3 mps 746 mmHg 68%
09:00 +10°C° 0 mm 3 mps 746 mmHg 62%
10:00 +11°C° 0 mm 3 mps 746 mmHg 56%
11:00 +12°C° 0.1 mm 3 mps 745 mmHg 55%
12:00 +12°C° 0.1 mm 3 mps 745 mmHg 53%
13:00 +12°C° 0.1 mm 3 mps 745 mmHg 52%
14:00 +12°C° 0.3 mm 3 mps 744 mmHg 57%
15:00 +11°C° 0.3 mm 3 mps 744 mmHg 62%
16:00 +11°C° 0.3 mm 3 mps 744 mmHg 67%
17:00 +10°C° 0.2 mm 2 mps 744 mmHg 72%
18:00 +9°C° 0.2 mm 2 mps 744 mmHg 76%
19:00 +9°C° 0.2 mm 1 mps 744 mmHg 80%
20:00 +9°C° 0 mm 1 mps 744 mmHg 81%
21:00 +8°C° 0 mm 1 mps 744 mmHg 83%
22:00 +7°C° 0 mm 1 mps 744 mmHg 85%
23:00 +7°C° 0 mm 1 mps 744 mmHg 86%

21 Abril, Miércoles

Tiempo Temperatura Precipitaciones Viento Presión Humedad
00:00 +7°C° 0 mm 1 mps 744 mmHg 87%
01:00 +6°C° 0 mm 1 mps 743 mmHg 89%
02:00 +6°C° 0.1 mm 1 mps 743 mmHg 90%
03:00 +5°C° 0.1 mm 2 mps 743 mmHg 91%
04:00 +6°C° 0.1 mm 2 mps 743 mmHg 92%
05:00 +7°C° 0.1 mm 2 mps 743 mmHg 87%
06:00 +8°C° 0.1 mm 2 mps 743 mmHg 82%
07:00 +8°C° 0.1 mm 2 mps 743 mmHg 77%
08:00 +10°C° 0.1 mm 3 mps 743 mmHg 69%
09:00 +11°C° 0.1 mm 3 mps 743 mmHg 61%
10:00 +12°C° 0.1 mm 4 mps 743 mmHg 53%
11:00 +12°C° 0 mm 4 mps 743 mmHg 51%
12:00 +12°C° 0 mm 4 mps 743 mmHg 50%
13:00 +12°C° 0 mm 4 mps 743 mmHg 49%
14:00 +13°C° 0 mm 4 mps 743 mmHg 49%
15:00 +13°C° 0 mm 4 mps 742 mmHg 49%
16:00 +13°C° 0 mm 4 mps 742 mmHg 50%
17:00 +11°C° 0.1 mm 3 mps 742 mmHg 59%
18:00 +10°C° 0.1 mm 3 mps 743 mmHg 69%
19:00 +8°C° 0.1 mm 3 mps 743 mmHg 78%
20:00 +8°C° 0 mm 3 mps 743 mmHg 81%
21:00 +7°C° 0 mm 3 mps 743 mmHg 83%
22:00 +7°C° 0 mm 3 mps 743 mmHg 85%
23:00 +5°C° 0 mm 3 mps 743 mmHg 86%

22 Abril, Jueves

Tiempo Temperatura Precipitaciones Viento Presión Humedad
00:00 +5°C° 0 mm 3 mps 743 mmHg 87%
01:00 +6°C° 0 mm 2 mps 743 mmHg 88%
02:00 +6°C° 0 mm 2 mps 744 mmHg 87%
03:00 +6°C° 0 mm 2 mps 744 mmHg 87%
04:00 +6°C° 0 mm 2 mps 744 mmHg 86%
05:00 +5°C° 0.2 mm 3 mps 745 mmHg 87%
06:00 +5°C° 0.2 mm 4 mps 745 mmHg 88%
07:00 +5°C° 0.2 mm 5 mps 746 mmHg 89%
08:00 +5°C° 1.1 mm 4 mps 746 mmHg 87%
09:00 +5°C° 1.1 mm 4 mps 747 mmHg 85%
10:00 +5°C° 1.1 mm 3 mps 748 mmHg 83%
11:00 +7°C° 0 mm 3 mps 748 mmHg 76%
12:00 +8°C° 0 mm 3 mps 748 mmHg 70%
13:00 +9°C° 0 mm 3 mps 748 mmHg 63%
14:00 +9°C° 0 mm 3 mps 749 mmHg 61%
15:00 +10°C° 0 mm 2 mps 749 mmHg 59%
16:00 +10°C° 0 mm 2 mps 749 mmHg 56%
17:00 +9°C° 0 mm 2 mps 750 mmHg 60%
18:00 +8°C° 0 mm 2 mps 750 mmHg 63%
19:00 +8°C° 0 mm 1 mps 750 mmHg 66%
20:00 +7°C° 0 mm 1 mps 750 mmHg 68%
21:00 +7°C° 0 mm 1 mps 750 mmHg 70%
22:00 +6°C° 0 mm 1 mps 751 mmHg 72%
23:00 +6°C° 0 mm 1 mps 751 mmHg 73%

23 Abril, Viernes

Tiempo Temperatura Precipitaciones Viento Presión Humedad
00:00 +6°C° 0 mm 1 mps 751 mmHg 75%
01:00 +5°C° 0 mm 2 mps 751 mmHg 76%
02:00 +5°C° 0.1 mm 2 mps 751 mmHg 79%
03:00 +5°C° 0.1 mm 2 mps 751 mmHg 81%
04:00 +5°C° 0.1 mm 2 mps 751 mmHg 83%
05:00 +5°C° 0.7 mm 2 mps 751 mmHg 86%
06:00 +4°C° 0.7 mm 3 mps 751 mmHg 88%
07:00 +4°C° 0.7 mm 4 mps 751 mmHg 91%
08:00 +5°C° 0.2 mm 4 mps 751 mmHg 88%
09:00 +6°C° 0.2 mm 5 mps 751 mmHg 85%
10:00 +7°C° 0.2 mm 5 mps 751 mmHg 82%
11:00 +8°C° 0.1 mm 4 mps 751 mmHg 82%
12:00 +10°C° 0.1 mm 3 mps 750 mmHg 82%
13:00 +12°C° 0.1 mm 2 mps 750 mmHg 82%
14:00 +11°C° 0.1 mm 3 mps 751 mmHg 80%
15:00 +12°C° 0.1 mm 3 mps 751 mmHg 78%
16:00 +12°C° 0.1 mm 4 mps 751 mmHg 76%
17:00 +11°C° 0.6 mm 3 mps 752 mmHg 82%
18:00 +9°C° 0.6 mm 2 mps 752 mmHg 88%
19:00 +7°C° 0.6 mm 2 mps 753 mmHg 94%
20:00 +8°C° 0.7 mm 1 mps 753 mmHg 94%
21:00 +8°C° 0.7 mm 1 mps 753 mmHg 95%
22:00 +8°C° 0.7 mm 1 mps 754 mmHg 95%
23:00 +7°C° 0 mm 1 mps 754 mmHg 95%
Mostrar más

Necesitamos Su Consentimiento

Meteoprog y nuestros Proveedores de Servicios pueden almacenar y acceder a sus datos personales como cookies, identificadores de dispositivo u otras tecnologías similares de su dispositivo y procesar dichos datos para personalizar contenido y anuncios, además de ofrecer funciones de redes sociales y analizar el tráfico.

  • Almacenar y/o acceder a información en su dispositivo

    Se puede almacenar o acceder a cookies, identificadores de dispositivo u otra información de su dispositivo para los fines anteriormente indicados.

  • Anuncios y contenido personalizados, medición de anuncios y contenido, percepciones del público, y desarrollo de productos

    Los anuncios y el contenido pueden personalizarse en base a su perfil. Se pueden añadir más datos para personalizar mejor los anuncios y contenidos. Se puede medir el rendimiento de los anuncios y contenidos. Se puede obtener la percepción sobre el público que ha visto los anuncios y contenidos. Dichos datos pueden usarse para desarrollar o mejorar la experiencia del usuario, sistemas y software.

Al hacer clic en ‘Estoy De Acuerdo’ usted permitirá el uso de las cookies, identificadores de dispositivo, balizas web u otras tecnologías similares indicadas. Su configuración puede cambiarse desde el navegador de su dispositivo.

Para ciertos fines, los intereses legítimos pueden ser considerados por encima del consentimiento. Puede leer más sobre ello en nuestra Política de Privacidad y Cookies.